Date Heure 872 138 mesures / 24h          Message   (150)           Tout (17802)
31/08/2026 06h 23' 26" Ping reçu, 2869
31/08/2026 06h 23' 21" Enregistrement de l'éclairement (345.6 lux & 0 lux )
31/08/2026 06h 23' 17" Ping reçu, 2867
31/08/2026 06h 23' 12" Ping reçu, 2866
31/08/2026 06h 23' 09" Enregistrement de l'Arduino : (22,0 °C)
31/08/2026 06h 23' 07" Ping reçu,         2865
31/08/2026 06h 23' 03" Ping reçu, 2864
31/08/2026 06h 22' 59" cPing.
31/08/2026 06h 22' 50" Ping reçu, 2861
31/08/2026 06h 22' 45" Ping reçu,         2860
31/08/2026 06h 22' 41" Ping reçu, 2859
31/08/2026 06h 22' 37" Ping reçu, 2858
31/08/2026 06h 22' 33" Ping reçu, 2857
31/08/2026 06h 22' 30" Ping reçu, 2856
31/08/2026 06h 22' 27" ERR. Ther. 1 HS.
31/08/2026 06h 22' 21" Ping reçu, 2854
31/08/2026 06h 22' 17" Ping reçu, 2853
31/08/2026 06h 22' 14" Enregistrement de l'éclairement (345.6 lux & 0 lux )
31/08/2026 06h 22' 09" Ping reçu, 2851
31/08/2026 06h 22' 05" Ping reçu,         2850
31/08/2026 06h 22' 03" cPing.
31/08/2026 06h 21' 56" Ping reçu, 2848
31/08/2026 06h 21' 47" Ping reçu, 2846
31/08/2026 06h 21' 42" Ping reçu,         2845
31/08/2026 06h 21' 34" Ping reçu, 2843
31/08/2026 06h 21' 30" Ping reçu, 2842
31/08/2026 06h 21' 27" Ping reçu, 2841
31/08/2026 06h 21' 23" Ping reçu, 1
31/08/2026 06h 21' 23" Ping reçu,         2840
31/08/2026 06h 21' 19" Ping reçu, 2839
31/08/2026 06h 21' 11" Ping reçu, 2837
31/08/2026 06h 21' 07" Enregistrement de l'éclairement (345.6 lux & 0 lux )
31/08/2026 06h 21' 06" cPing.
31/08/2026 06h 21' 06" Ping reçu, 2836
31/08/2026 06h 21' 02" Ping reçu,         2835
31/08/2026 06h 21' 02" On a tout sauvé !
31/08/2026 06h 20' 57" Ping reçu, 2834
31/08/2026 06h 20' 53" Ping reçu, 2833
31/08/2026 06h 20' 39" Ping reçu,         2830
31/08/2026 06h 20' 35" Ping reçu, 2829
31/08/2026 06h 20' 31" Ping reçu, 2828
31/08/2026 06h 20' 27" Ping reçu, 2827
31/08/2026 06h 20' 24" Ping reçu, 2826
31/08/2026 06h 20' 12" Ping reçu, 2823
31/08/2026 06h 20' 11" cPing.
31/08/2026 06h 20' 08" Ping reçu, 2822
31/08/2026 06h 20' 02" Enregistrement de l'éclairement (345.6 lux & 0 lux )
31/08/2026 06h 20' 02" Enregistrement de la température (17,281 °C)
31/08/2026 06h 19' 59" Ping reçu,         2820
31/08/2026 06h 19' 54" Ping reçu, 2819
31/08/2026 06h 19' 50" Ping reçu, 2818
31/08/2026 06h 19' 46" Ping reçu, 2817
31/08/2026 06h 19' 37" Ping reçu,         2815
31/08/2026 06h 19' 33" Ping reçu, 2814
31/08/2026 06h 19' 26" Ping reçu, 2812
31/08/2026 06h 19' 22" Ping reçu, 2811
31/08/2026 06h 19' 17" Ping reçu,         2810
31/08/2026 06h 19' 14" cPing.
31/08/2026 06h 19' 13" Ping reçu, 2809
31/08/2026 06h 19' 09" Ping reçu, 2808
31/08/2026 06h 19' 00" Ping reçu, 2806
31/08/2026 06h 18' 56" Ping reçu,         2805
31/08/2026 06h 18' 52" Ping reçu, 2804
31/08/2026 06h 18' 48" Ping reçu, 2803
31/08/2026 06h 18' 45" Ping reçu, 2802
31/08/2026 06h 18' 35" Enregistrement des paramètres du vent (49.1° @ 0 m/s)
31/08/2026 06h 18' 35" Enregistrement de l'humidité (99,90 %)
31/08/2026 06h 18' 25" Ping reçu, 2798
31/08/2026 06h 18' 21" Ping reçu, 2797
31/08/2026 06h 18' 19" cPing.
31/08/2026 06h 18' 17" Ping reçu, 2796
31/08/2026 06h 18' 05" Ping reçu, 2793
31/08/2026 06h 18' 01" Ping reçu, 2792
31/08/2026 06h 17' 57" Ping reçu, 2791
31/08/2026 06h 17' 52" Ping reçu,         2790
31/08/2026 06h 17' 47" Enregistrement de l'éclairement (345.6 lux & 0 lux )
31/08/2026 06h 17' 39" Ping reçu, 2787
31/08/2026 06h 17' 31" Ping reçu,         2785
31/08/2026 06h 17' 27" Ping reçu, 2784
31/08/2026 06h 17' 22" cPing.
31/08/2026 06h 17' 18" Ping reçu, 2782
31/08/2026 06h 17' 06" Ping reçu, 2779
31/08/2026 06h 16' 58" Ping reçu, 2777
31/08/2026 06h 16' 50" Ping reçu,         2775
31/08/2026 06h 16' 45" Ping reçu, 2774
31/08/2026 06h 16' 41" Ping reçu, 2773
31/08/2026 06h 16' 36" Ping reçu, 2772
31/08/2026 06h 16' 36" Enregistrement de l'éclairement (345.6 lux & 0 lux )
31/08/2026 06h 16' 32" Ping reçu, 2771
31/08/2026 06h 16' 28" Ping reçu,         2770
31/08/2026 06h 16' 27" cPing.
31/08/2026 06h 16' 24" Ping reçu, 2769
31/08/2026 06h 16' 22" Enregistrement Température du pluviometre : (20,6 °C)
31/08/2026 06h 16' 13" Ping reçu, 2767
31/08/2026 06h 16' 05" Ping reçu,         2765
31/08/2026 06h 15' 56" Ping reçu, 2763
31/08/2026 06h 15' 52" Ping reçu, 2762
31/08/2026 06h 15' 47" Enregistrement de la température (17,272 °C)
31/08/2026 06h 15' 45" Enregistrement de la Pression atmosphérique (1027,794 hPa)
31/08/2026 06h 15' 43" Ping reçu,         2760
31/08/2026 06h 15' 38" Ping reçu, 2759
31/08/2026 06h 15' 35" Ping reçu, 2758
31/08/2026 06h 15' 32" Ping reçu, 2757
31/08/2026 06h 15' 30" cPing.
31/08/2026 06h 15' 23" Ping reçu,         2755
31/08/2026 06h 15' 19" Ping reçu, 2754
31/08/2026 06h 15' 15" Ping reçu, 2753
31/08/2026 06h 15' 06" Ping reçu, 2751
31/08/2026 06h 15' 01" Ping reçu,         2750
31/08/2026 06h 14' 57" Ping reçu, 2749
31/08/2026 06h 14' 53" Ping reçu, 2748
31/08/2026 06h 14' 44" Ping reçu, 2746
31/08/2026 06h 14' 40" Ping reçu,         2745
31/08/2026 06h 14' 36" Ping reçu, 2744
31/08/2026 06h 14' 35" cPing.
31/08/2026 06h 14' 31" Ping reçu, 2743
31/08/2026 06h 14' 27" Ping reçu, 2742
31/08/2026 06h 14' 24" Ping reçu, 2741
31/08/2026 06h 14' 21" Enregistrement de l'éclairement (345.6 lux & 0 lux )
31/08/2026 06h 14' 20" Ping reçu,         2740
31/08/2026 06h 14' 16" Ping reçu, 2739
31/08/2026 06h 14' 12" Ping reçu, 2738
31/08/2026 06h 14' 07" Ping reçu, 2737
31/08/2026 06h 14' 03" Ping reçu, 2736
31/08/2026 06h 13' 59" Ping reçu,         2735
31/08/2026 06h 13' 50" Ping reçu, 2733
31/08/2026 06h 13' 46" Ping reçu, 2732
31/08/2026 06h 13' 42" Ping reçu, 2731
31/08/2026 06h 13' 38" cPing.
31/08/2026 06h 13' 21" Ping reçu, 2726
31/08/2026 06h 13' 17" Ping reçu,         2725
31/08/2026 06h 13' 13" Ping reçu, 2724
31/08/2026 06h 13' 09" Ping reçu, 2723
31/08/2026 06h 13' 05" Ping reçu, 2722
31/08/2026 06h 13' 00" Ping reçu, 2721
31/08/2026 06h 12' 57" Pressions pluviométriques (32,07 & 64,00)
31/08/2026 06h 12' 56" Ping reçu,         2720
31/08/2026 06h 12' 56" Enregistrement de la hauteur d'eau (782,830 mm @ 99,9%)
31/08/2026 06h 12' 46" Ping reçu, 2718
31/08/2026 06h 12' 42" cPing.
31/08/2026 06h 12' 42" Ping reçu, 2717
31/08/2026 06h 12' 25" Ping reçu, 2713
31/08/2026 06h 12' 21" Ping reçu, 2712
31/08/2026 06h 12' 17" Ping reçu, 2711
31/08/2026 06h 12' 14" Ping reçu,         2710
31/08/2026 06h 12' 06" Enregistrement de l'éclairement (345.6 lux & 0 lux )
31/08/2026 06h 12' 05" Ping reçu, 2708
31/08/2026 06h 11' 57" Ping reçu, 2706
31/08/2026 06h 11' 48" Ping reçu, 2704
31/08/2026 06h 11' 47" cPing.
      |         Voir Tout